Weather in Pulyny

Ukraine / Zhytomyr Region     50°27′58″N   28°15′39″E
В апреле 2022 года жителям России запретили посещать сайт meteo.paraplan.net по решению Генеральной прокуратуры. Аудитория сайта уменьшилась в 10 раз. Владельцы сайта не видят смысла в поддержке погодного сервера в таких условиях. Сайт будет закрыт в октябре.
temp.,
°C
wind,
m/s
gust,
m/s
humid.,
%
clouds,
%
prec.,
mm/h
press.,
hPa
HPBL,
m
30 september, fri
fri3000:00+14sw2392100 0.6 100856
03:00+11w22957 0.6 100920
06:00+11wnw33955 0.0 101039
09:00+13nnw228978 0.0 1012144
12:00+17nw1174100 0.0 1013496
15:00+18wsw1268100 0.0 1013811
18:00+16n0078100 0.0 101411
21:00+14s3490100 0.8 101454
1 october, sat
sat100:00+14s3890100 1.6 1014188
03:00+14sw4108799 1.6 1014211
06:00+12wsw4129563 0.0 1014365
09:00+11w51087100 0.0 1016354
12:00+12sw3886100 0.0 1016374
15:00+15wsw4776100 0.1 1015676
18:00+14ssw3593100 0.3 1014346
21:00+13ssw3498100 0.6 1013115
2 october, sun
sun200:00+13sse1299100 5.1 101140
03:00+13ssw1199100 11.4 101053
06:00+12ssw2398100 4.4 100876
09:00+13wsw2598100 5.1 1007366
12:00+12wnw71193100 2.5 1008724
15:00+12nw7117988 2.6 10091025
18:00+11wnw61188100 0.3 1009712
21:00+10w51194100 0.4 1009458
3 october, mon
mon300:00+10wnw71392100 0.4 1009842
03:00+9wnw71392100 0.7 1009769
06:00+9wnw81488100 0.1 10091058
09:00+9wnw61292100 1.1 1009828
12:00+9wnw71289100 0.3 1011831
15:00+10wnw71086100 0.4 1011793
18:00+9w61288100 0.1 1012722
21:00+9w71386100 0.1 1013685
4 october, tue
tue400:00+9w61190100 0.1 1013663
03:00+9wsw61289100 0.1 1012683
06:00+9wsw61291100 0.6 1011645
09:00+9w6108785 0.9 1012715
12:00+11wnw6980100 0.6 10121109
15:00+12wnw6973100 0.9 10131127
18:00+10wnw378591 0.9 1015294
21:00+8w3593100 1.2 1016121